Voltar ao catálogo

STARLINK-37253

AtivoComunicaçõesSSO
NORAD 68606·PAYLOAD·🇺🇸 United States

Lançado Apr 5, 2026 de Vandenberg Space Force Base

Loading…

Próximas Passagens (próximas 24 horas)

TLE

AtualizadoSource: CelesTrak SupGP

Época: Sep 14, 2026, 21:14 UTC

1 68606C 26073E   26257.88520833  .00076538  00000+0  23765-2 0  2573
2 68606  97.2852  96.0266 0001792  96.4487 246.4035 15.33391282    19

Acompanhe STARLINK-37253 em tempo real com AllMySat

Download on the App Store